Snowfall_Accumulation
0.0 14.8 9.3 1.4 0.3 0.7 1.0 0.7 0.7 0.2 0.0 0.0 0.0 0.0 0.0 0.0 0.0 0.0 1.2 0.0 0.0 0.0 0.0 0.0 0.0 0.0 0.0 0.0 0.0 0.0 0.0 0.0 0.0 0.0 0.0 0.0 0.0 0.0 0.0 0.0 0.0 0.0 0.0 0.0
1.8 10.6 0.2 0.0 0.0 0.8 3.4 0.8 1.3 0.0 0.0 0.0 0.0 0.0 0.0 0.0 0.0 0.0 7.3 0.0 0.0 0.0 0.0 0.0 0.0 0.0 0.0 0.0 0.0 0.0 0.0 0.0 0.0 0.0 0.0 0.0 0.0 0.0 0.0 0.0 0.0 0.0 0.0 0.0
3.5 1.9 0.0 0.7 1.1 1.2 1.0 0.0 1.0 2.3 0.4 0.0 0.0 0.4 0.0 0.0 0.0 0.0 0.0 0.0 0.0 1.7 2.7 0.0 0.0 0.0 0.0 0.0 0.0 0.0 0.0 0.0 0.0 0.0 0.0 0.0 0.0 0.0 0.0 0.0 0.0 0.0 0.0 0.0
3.2 0.0 0.8 5.8 0.2 0.3 0.0 0.0 1.6 1.6 1.6 2.8 0.0 1.8 0.0 0.0 0.0 0.0 0.0 0.0 0.0 0.0 0.0 0.0 0.0 0.0 0.0 0.0 0.0 0.0 0.0 0.0 0.0 0.0 0.0 0.0 0.0 0.0 0.0 0.0 0.0 0.0 0.0 0.0
13.3 0.4 3.1 4.1 0.0 0.0 0.0 0.0 0.0 1.7 2.5 2.4 0.1 4.4 0.0 0.0 0.0 0.0 0.0 0.0 0.0 0.1 0.0 0.0 0.0 0.0 0.0 0.0 0.0 0.0 0.0 0.0 0.0 0.0 0.0 0.0 0.0 0.0 0.0 0.0 0.0 0.0 0.0 0.0
2.7 0.0 0.0 0.0 0.0 0.0 0.0 0.0 0.0 4.1 5.9 11.8 0.1 5.6 4.8 2.9 2.2 0.9 0.0 0.0 0.0 0.0 0.0 0.0 0.0 0.0 0.0 0.0 0.0 0.0 0.0 0.0 0.0 0.0 0.0 0.0 0.0 0.0 0.0 0.0 0.0 0.0 0.0 0.0
7.5 0.0 0.0 0.0 0.0 0.0 3.9 10.6 17.6 16.7 15.6 8.1 4.7 7.0 5.7 4.9 0.9 2.0 0.0 0.0 0.0 0.0 0.0 0.0 0.0 0.0 0.0 0.0 0.0 0.0 0.0 0.0 0.0 0.0 0.0 0.0 0.0 0.0 0.0 0.0 0.0 0.0 0.0 0.0
13.3 17.4 0.0 0.0 0.0 6.4 5.3 5.0 11.9 6.4 3.0 2.0 1.4 4.5 7.7 0.1 0.0 0.0 0.0 0.0 0.0 0.0 0.0 0.0 0.0 0.0 0.0 0.2 0.2 0.1 0.1 0.1 0.0 0.5 0.1 0.8 0.0 1.2 0.9 0.0 0.0 1.1 0.0 0.0
4.4 5.2 0.0 0.0 0.0 0.0 1.4 9.1 0.9 4.5 1.4 3.5 3.2 3.7 0.3 0.0 0.0 0.0 0.0 0.0 0.0 0.0 0.0 0.0 0.0 0.0 0.1 0.1 0.1 0.0 0.3 0.2 0.3 0.1 0.1 0.3 0.4 0.4 0.2 0.1 0.3 0.4 0.2 0.0
1.0 3.7 0.0 0.0 0.0 0.0 0.4 0.0 1.2 11.7 6.5 2.5 2.0 2.9 8.2 8.1 6.0 3.7 2.3 0.0 0.0 0.0 0.0 0.0 0.0 0.0 0.0 0.1 0.1 0.4 0.4 0.3 0.4 0.4 0.3 0.4 0.5 0.7 0.5 0.3 0.2 0.2 0.0 0.3
0.0 9.1 3.9 0.0 2.2 1.0 0.6 1.8 1.7 1.2 2.6 1.8 1.2 5.2 6.1 10.6 3.6 4.3 0.1 0.2 0.2 0.2 0.1 0.0 0.0 0.1 0.3 0.3 0.4 0.4 0.4 0.5 0.5 0.7 0.6 0.6 0.7 1.0 1.0 0.8 0.8 0.7 0.7 0.6
0.0 10.3 11.4 3.1 0.0 0.0 0.0 0.3 0.7 8.8 3.5 2.1 2.4 3.9 0.1 0.1 0.0 0.1 0.2 0.2 0.2 0.1 0.2 0.1 0.0 0.0 0.0 0.2 0.4 0.5 0.5 0.6 0.8 1.2 0.9 1.4 1.5 0.8 1.2 1.5 1.5 1.4 1.1 1.0
4.7 19.3 15.4 10.5 1.6 0.2 4.6 2.5 3.1 4.9 8.3 9.5 8.3 2.7 0.4 0.2 0.2 0.1 0.2 0.2 0.3 0.8 0.5 0.4 1.0 0.8 1.3 1.3 1.2 1.2 1.7 1.9 1.8 1.8 2.6 2.5 2.5 2.4 2.7 2.8 1.7 2.0 2.3 2.2
3.2 13.2 13.5 11.8 9.5 8.2 8.0 3.2 4.5 12.2 28.5 8.0 5.1 2.8 1.6 1.3 1.0 0.7 0.7 1.6 2.7 2.7 2.4 2.0 2.6 3.0 3.6 4.0 4.0 3.9 4.2 4.1 3.5 3.3 3.4 3.4 3.5 4.4 4.5 4.3 4.3 5.1 5.0 4.7
4.9 19.0 11.5 6.0 3.2 10.1 8.1 4.4 2.9 11.4 9.8 18.0 7.8 3.8 4.7 4.9 4.1 3.8 3.6 3.3 3.2 3.8 4.0 4.2 4.4 4.8 5.1 5.2 5.6 6.2 6.5 6.7 6.9 6.6 6.9 7.4 7.7 7.7 7.7 7.8 7.8 7.6 7.1 7.2
4.3 18.2 9.8 7.1 1.2 4.3 6.1 4.1 3.0 2.7 3.2 5.8 5.5 5.5 6.4 4.8 3.0 3.3 3.4 3.5 3.8 4.4 4.6 4.3 4.7 5.1 4.7 4.9 4.8 4.8 5.2 5.1 5.6 5.9 6.5 6.6 6.3 6.2 6.2 6.1 6.1 6.0 6.1 6.2
5.9 13.4 18.2 15.1 2.2 2.0 7.5 2.0 0.9 1.3 1.3 1.8 6.2 3.1 2.6 2.9 2.9 3.6 3.9 4.4 4.9 4.7 5.9 5.9 5.5 4.9 4.6 4.2 4.2 4.4 4.1 4.0 4.2 4.4 4.3 4.2 3.9 3.7 3.5 3.4 3.2 3.3 3.3 3.4
3.3 8.6 19.4 21.8 10.4 17.9 3.0 1.7 1.9 2.0 2.4 3.1 4.1 4.1 5.1 6.4 7.3 6.2 5.9 6.4 7.5 7.1 6.5 5.4 4.9 5.0 5.1 4.7 4.4 4.0 4.0 3.8 3.6 3.2 3.6 3.2 2.7 2.5 2.2 1.9 1.9 1.9 1.8 1.8
2.4 5.2 19.5 23.8 16.0 6.9 4.4 3.4 3.3 3.9 3.6 4.3 5.0 5.6 6.5 8.2 9.4 10.0 9.5 7.8 6.9 6.7 6.0 6.1 5.6 5.3 4.8 4.3 4.3 4.2 3.8 3.6 3.4 3.1 2.5 1.9 1.9 1.7 2.0 2.3 4.2 7.4 5.7 2.9
1.5 3.2 13.2 16.5 21.5 10.8 4.6 2.8 3.5 5.3 5.5 3.6 4.6 6.4 7.3 8.0 9.2 8.0 7.5 6.2 5.9 5.2 4.7 4.2 3.6 3.3 3.4 3.4 3.3 2.6 2.2 2.3 2.2 1.7 1.3 0.8 0.7 0.7 1.0 1.6 1.8 5.6 3.7 5.9
1.7 4.7 13.1 10.9 25.1 14.1 5.3 4.1 5.3 12.1 7.5 3.7 4.0 7.3 7.1 6.7 6.3 5.8 5.3 4.7 4.2 3.5 2.9 2.3 2.2 2.2 2.1 1.6 1.2 1.0 0.7 0.7 0.5 0.2 0.1 0.2 0.3 0.8 0.7 3.1 2.5 3.5 3.0 3.3
4.1 9.8 7.6 12.2 19.5 13.3 4.8 4.3 6.6 11.3 9.1 9.9 7.8 5.7 5.0 4.8 5.4 5.0 4.6 3.9 3.4 2.7 2.3 1.9 1.4 1.0 0.9 0.6 0.5 0.4 2.1 3.2 4.3 2.5 2.6 2.2 2.1 1.1 1.7 0.9 0.9 0.8 0.9 0.8
5.2 5.7 9.2 11.4 10.8 8.5 7.3 7.7 10.3 12.6 9.9 7.5 5.5 4.9 4.3 4.2 3.9 3.4 3.0 2.6 2.2 1.8 1.4 1.1 0.8 0.6 0.3 0.3 0.1 0.0 0.3 0.0 0.5 0.5 1.2 0.5 0.0 0.0 0.1 0.0 0.5 0.7 0.9 1.7
3.4 4.2 9.7 8.8 8.6 7.4 8.2 10.6 9.4 8.1 7.7 6.6 5.0 4.1 3.4 3.1 3.0 2.2 2.1 1.7 1.4 1.1 0.8 0.7 0.5 0.2 0.0 0.0 0.0 0.0 0.0 0.0 0.0 0.0 0.1 0.1 0.4 0.1 0.0 0.9 1.2 1.5 1.0 1.9
7.2 2.8 6.0 9.2 7.3 9.7 10.4 7.0 8.5 7.1 6.3 5.2 4.5 3.4 2.9 2.1 2.2 1.7 1.6 1.2 1.0 0.8 0.6 0.3 0.2 0.0 0.0 0.0 0.0 0.0 0.0 0.0 0.5 0.5 0.6 1.6 1.5 1.0 0.5 1.9 2.3 2.6 2.2 2.7
6.8 7.2 11.6 12.4 10.3 11.3 9.3 7.5 6.2 4.8 4.5 3.1 1.9 1.8 2.0 1.3 1.4 1.1 1.0 0.8 0.7 0.4 0.1 0.0 0.0 0.0 0.0 0.0 0.0 0.0 0.0 0.5 0.8 1.0 0.7 2.0 2.0 2.4 2.8 3.6 4.8 4.2 3.4 3.8